Santa Fe, NM

6:38 AM MST on January 18, 2017 (GMT -0700)
Santa Fe Municipal

Weather History for KSAF - May, 2013

Change the Weather History Date:

Tuesday, May 7, 2013

  Actual Average Record
Temperature  
Mean Temperature 56 °F -  
Max Temperature 73 °F 76 °F 84 °F (2000)
Min Temperature 39 °F 41 °F 30 °F (2007)
Degree Days  
Heating Degree Days 10    
Growing Degree Days 6 (Base 50)    
Moisture  
Dew Point 27 °F    
Average Humidity 36    
Maximum Humidity 70    
Minimum Humidity 11    
Precipitation  
Precipitation 0.00 in - - ()
Sea Level Pressure  
Sea Level Pressure 29.84 in    
Wind  
Wind Speed 8 mph (NW)    
Max Wind Speed 14 mph    
Max Gust Speed 31 mph    
Visibility 10 miles    
Events Rain    
Averages and records for this station are not official NWS values.
T = Trace of Precipitation, MM = Missing Value Source: NWS Daily Summary

Daily Weather History Graph

Daily Weather History Graph

Search for Another Location

Airport or City:

Trip Planner

Search our weather history database for the weather conditions in past years. The results will help you decide how hot, cold, wet, or windy it might be!

Date:

Astronomy

May. 07, 2013 Rise Set
Actual Time 6:06 AM MDT 7:56 PM MDT
Civil Twilight 5:38 AM MDT 8:24 PM MDT
Nautical Twilight 5:04 AM MDT 8:57 PM MDT
Astronomical Twilight 4:29 AM MDT 9:33 PM MDT
Moon 4:37 AM MDT (5/7) 6:01 PM MDT (5/7)
Length of Visible Light 14h 45m
Length of Day
13h 50m
Waning Crescent, 5% of the Moon is Illuminated
May 7
Waning Crescent
May 9
New
May 17
First Quarter
May 24
Full
May 31
Last Quarter

Hourly Weather History & Observations

Time (MDT) Temp. Windchill Dew Point Humidity Pressure Visibility Wind Dir Wind Speed Gust Speed Precip Events Conditions
12:53 AM 52.0 °F - 37.9 °F 59% 29.92 in 10.0 mi ESE 6.9 mph - 0.00 in   Overcast
2:53 AM 46.0 °F - 34.0 °F 63% 29.90 in 10.0 mi Calm Calm - N/A   Clear
3:53 AM 41.0 °F 35.8 °F 30.0 °F 65% 29.93 in 10.0 mi North 8.1 mph - N/A   Clear
4:53 AM 39.9 °F 35.1 °F 30.0 °F 68% 29.91 in 10.0 mi NNE 6.9 mph - N/A   Clear
5:53 AM 39.9 °F 33.9 °F 30.9 °F 70% 29.91 in 10.0 mi NNE 9.2 mph - N/A   Clear
6:53 AM 43.0 °F 37.7 °F 33.1 °F 68% 29.93 in 10.0 mi North 9.2 mph - N/A   Clear
7:53 AM 50.0 °F - 34.0 °F 54% 29.92 in 10.0 mi North 10.4 mph - N/A   Clear
8:53 AM 55.9 °F - 34.0 °F 44% 29.89 in 10.0 mi North 11.5 mph - N/A   Clear
9:53 AM 59.0 °F - 30.9 °F 35% 29.89 in 10.0 mi Variable 3.5 mph - N/A   Clear
10:53 AM 64.0 °F - 28.0 °F 26% 29.86 in 10.0 mi SSW 11.5 mph 17.3 mph N/A   Clear
11:53 AM 66.0 °F - 27.0 °F 23% 29.86 in 10.0 mi SW 12.7 mph 26.5 mph N/A   Clear
12:53 PM 68.0 °F - 23.0 °F 18% 29.82 in 10.0 mi West 11.5 mph 17.3 mph N/A   Clear
1:53 PM 70.0 °F - 23.0 °F 17% 29.81 in 10.0 mi SW 8.1 mph 21.9 mph N/A   Clear
2:53 PM 69.1 °F - 21.0 °F 16% 29.81 in 10.0 mi WSW 9.2 mph 20.7 mph N/A   Scattered Clouds
3:53 PM 69.1 °F - 17.1 °F 14% 29.80 in 10.0 mi SSW 5.8 mph 23.0 mph N/A   Partly Cloudy
4:53 PM 72.0 °F - 18.0 °F 13% 29.76 in 10.0 mi SSE 13.8 mph 20.7 mph N/A   Mostly Cloudy
5:53 PM 72.0 °F - 14.0 °F 11% 29.75 in 10.0 mi SW 10.4 mph 21.9 mph N/A   Mostly Cloudy
6:53 PM 66.9 °F - 19.0 °F 16% 29.75 in 10.0 mi West 11.5 mph - N/A   Clear
7:43 PM 60.8 °F - 26.6 °F 27% 29.99 in 10.0 mi NE 11.5 mph 31.1 mph 0.00 in Rain Light Rain
7:53 PM 61.0 °F - 27.0 °F 27% 29.78 in 10.0 mi Variable 5.8 mph - 0.00 in   Mostly Cloudy
8:53 PM 61.0 °F - 25.0 °F 25% 29.77 in 10.0 mi Calm Calm - N/A   Scattered Clouds
9:53 PM 57.9 °F - 25.0 °F 28% 29.78 in 10.0 mi Variable 4.6 mph - N/A   Mostly Cloudy
10:53 PM 55.9 °F - 26.1 °F 32% 29.76 in 10.0 mi NNW 4.6 mph - N/A   Overcast
11:53 PM 54.0 °F - 28.9 °F 38% 29.75 in 10.0 mi North 9.2 mph - N/A   Clear